Location: Cahas Mountain Overlook
(37.0833°N, 80.1000°W)
Time: 02:19:14
(UTC-05:00)

Injun/Solrad 3 - Visible Passes

Search period start: 15 February 2026 00:00
Search period end: 25 February 2026 00:00
Orbit: 873 x 983 km, 66.8° (Epoch: 13 February)

Date Brightness Start Highest point End Pass type
(mag) Time Alt. Az. Time Alt. Az. Time Alt. Az.
15 Feb 9.4 19:44:26 10° N 19:47:42 19° NNE 19:47:42 19° NNE visible
15 Feb 10.1 21:29:46 10° NNW 21:31:22 19° NW 21:31:22 19° NW visible
16 Feb 9.0 19:54:55 10° N 19:59:00 27° NNE 19:59:00 27° NNE visible
16 Feb 10.1 21:41:00 10° NW 21:42:41 19° NW 21:42:41 19° NW visible
17 Feb 8.5 20:05:36 10° NNW 20:10:26 40° NNE 20:10:26 40° NNE visible
17 Feb 10.3 21:52:29 10° NW 21:54:07 17° WNW 21:54:07 17° WNW visible
18 Feb 9.7 18:32:30 10° NNE 18:35:00 12° NE 18:37:29 10° ENE visible
18 Feb 8.0 20:16:27 10° NNW 20:21:59 62° NNE 20:21:59 62° NNE visible
18 Feb 10.5 22:04:26 10° WNW 22:05:40 14° WNW 22:05:40 14° WNW visible
19 Feb 9.4 18:42:22 10° N 18:46:29 18° NE 18:49:59 12° E visible
19 Feb 7.9 20:27:26 10° NNW 20:33:40 82° WSW 20:33:41 82° WSW visible
20 Feb 8.9 18:52:45 10° N 18:57:52 26° NE 19:01:53 15° E visible
20 Feb 8.5 20:38:36 10° NW 20:44:38 53° WSW 20:45:36 49° SW visible
21 Feb 8.5 19:03:23 10° NNW 19:09:08 38° NE 19:14:03 14° ESE visible
21 Feb 9.3 20:50:00 10° NW 20:55:31 34° WSW 20:57:48 26° SW visible
22 Feb 8.0 19:14:12 10° NNW 19:20:18 58° ENE 19:26:33 10° SE visible
22 Feb 10.0 21:01:45 10° WNW 21:06:19 22° WSW 21:10:21 12° SSW visible
23 Feb 7.9 19:25:08 10° NNW 19:31:23 87° ENE 19:37:45 10° SSE visible
23 Feb 10.6 21:14:23 10° WNW 21:17:03 13° WSW 21:19:45 10° SW visible
24 Feb 8.4 19:36:13 10° NW 19:42:22 62° WSW 19:48:37 10° SSE visible
